Weather History for De Kooy, Netherlands

Change the Weather History Date:

Wednesday, September 18, 2013

  Actual Average Record
Temperature  
Mean Temperature 54 °F -  
Max Temperature 61 °F 60 °F 75 °F (2003)
Min Temperature 46 °F 49 °F 46 °F (2005)
Degree Days  
Heating Degree Days 12    
Growing Degree Days 4 (Base 50)    
Moisture  
Dew Point 48 °F    
Average Humidity 85    
Maximum Humidity 100    
Minimum Humidity 57    
Precipitation  
Precipitation 0.00 in 0.11 in - ()
Sea Level Pressure  
Sea Level Pressure 29.45 in    
Wind  
Wind Speed 7 mph ()    
Max Wind Speed 18 mph    
Max Gust Speed 24 mph    
Visibility 6.0 miles    
Events Rain    
Averages and records for this station are not official NWS values.
T = Trace of Precipitation, MM = Missing Value Source: Averaged Metar Reports

Daily Weather History Graph

Daily Weather History Graph

Search for Another Location

Airport:

Trip Planner

Search our weather history database for the weather conditions in past years. The results will help you decide how hot, cold, wet, or windy it might be!

Date:

Astronomy

Sep. 18, 2013 Rise Set
Actual Time 7:19 AM CEST 7:48 PM CEST
Civil Twilight 6:45 AM CEST 8:23 PM CEST
Nautical Twilight 6:03 AM CEST 9:04 PM CEST
Astronomical Twilight 5:20 AM CEST 9:48 PM CEST
Moon 7:02 PM CEST (9/18) 6:00 AM CEST (9/18)
Length of Visible Light 13h 38m
Length of Day
12h 28m
Waxing Gibbous, 99% of the Moon is Illuminated
Sep 18
Waxing Gibbous
Sep 19
Full
Sep 27
Last Quarter
Oct 5
New
Oct 12
First Quarter

Hourly Weather History & Observations

Time (CEST) Temp. Windchill Dew Point Humidity Pressure Visibility Wind Dir Wind Speed Gust Speed Precip Events Conditions
12:00 AM 48.2 °F - 48.2 °F 100% 29.36 in 5.0 mi SSE 9.2 mph - N/A   Heavy Drizzle
12:04 AM 48.2 °F - 48.2 °F 100% 29.36 in 4.3 mi SSE 8.1 mph - N/A   Light Drizzle
12:08 AM 48.2 °F - 48.2 °F 100% 29.36 in 5.0 mi SSE 8.1 mph - N/A   Light Drizzle
12:25 AM 48.2 °F - 48.2 °F 100% 29.36 in 3.1 mi SSE 6.9 mph - N/A Rain Light Rain
12:33 AM 48.2 °F - 48.2 °F 100% 29.36 in 4.3 mi SSE 5.8 mph - N/A   Heavy Drizzle
12:37 AM 48.2 °F - 48.2 °F 100% 29.36 in 4.3 mi SSE 5.8 mph - N/A Rain Light Rain
12:42 AM 48.2 °F - 48.2 °F 100% 29.36 in 3.7 mi SSE 5.8 mph - N/A Rain Light Rain
12:55 AM 48.2 °F - 48.2 °F 100% 29.36 in 3.7 mi SSE 5.8 mph - N/A   Drizzle
1:03 AM 48.2 °F - 48.2 °F 100% 29.36 in 3.7 mi SSE 5.8 mph - N/A   Heavy Drizzle
1:07 AM 48.2 °F - 48.2 °F 100% 29.36 in 3.1 mi SSE 5.8 mph - N/A   Heavy Drizzle
1:12 AM 48.2 °F - 48.2 °F 100% 29.36 in - SSE 5.8 mph - N/A   Heavy Drizzle
1:16 AM 48.2 °F - 48.2 °F 100% 29.36 in 2.5 mi SSE 4.6 mph - N/A   Heavy Drizzle
1:25 AM 48.2 °F - 48.2 °F 100% 29.36 in - SSE 5.8 mph - N/A   Heavy Drizzle
1:27 AM 48.2 °F - 48.2 °F 100% 29.36 in 3.1 mi SSE 5.8 mph - N/A   Drizzle
1:33 AM 48.2 °F - 48.2 °F 100% 29.36 in - SSE 4.6 mph - N/A   Drizzle
1:37 AM 48.2 °F - 48.2 °F 100% 29.36 in 3.1 mi SSE 3.5 mph - N/A   Drizzle
1:41 AM 48.2 °F - 48.2 °F 100% 29.36 in 2.2 mi SSE 3.5 mph - N/A   Heavy Drizzle
1:45 AM 48.2 °F - 48.2 °F 100% 29.36 in - SSE 3.5 mph - N/A Rain Light Rain
1:55 AM 48.2 °F - 48.2 °F 100% 29.36 in - South 5.8 mph - N/A Rain Light Rain
1:57 AM 48.2 °F - 48.2 °F 100% 29.36 in - South 4.6 mph - N/A Rain Light Rain Showers
2:00 AM 49 °F - 48 °F 96% 29.36 in 2 mi SSE 4.5 mph - - Rain Light Rain
2:01 AM 48.2 °F - 48.2 °F 100% 29.36 in - SSE 4.6 mph - N/A Rain Light Rain Showers
2:05 AM 48.2 °F - 48.2 °F 100% 29.36 in - SSE 4.6 mph - N/A Rain Light Rain
2:14 AM 48.2 °F - 48.2 °F 100% 29.36 in - South 5.8 mph - N/A   Drizzle
2:18 AM 48.2 °F - 48.2 °F 100% 29.36 in - South 5.8 mph - N/A Rain Light Rain
2:25 AM 48.2 °F - 48.2 °F 100% 29.36 in - South 5.8 mph - N/A Rain Light Rain
2:27 AM 48.2 °F - 48.2 °F 100% 29.36 in 3.1 mi South 6.9 mph - N/A   Overcast
2:40 AM 48.2 °F - 48.2 °F 100% 29.36 in 3.7 mi South 6.9 mph - N/A   Overcast
2:55 AM 48.2 °F - 48.2 °F 100% 29.36 in 3.7 mi South 5.8 mph - N/A   Overcast
3:25 AM 48.2 °F - 48.2 °F 100% 29.36 in 3.1 mi SSE 3.5 mph - N/A   Overcast
3:29 AM 48.2 °F - 48.2 °F 100% 29.36 in - South 3.5 mph - N/A   Overcast
3:55 AM 48.2 °F - 48.2 °F 100% 29.36 in - SW 4.6 mph - N/A   Mostly Cloudy
4:25 AM 48.2 °F - 48.2 °F 100% 29.36 in - South 2.3 mph - N/A   Overcast
4:27 AM 48.2 °F - 48.2 °F 100% 29.36 in - South 2.3 mph - N/A   Overcast
4:31 AM 48.2 °F - 48.2 °F 100% 29.36 in - South 2.3 mph - N/A   Overcast
4:45 AM 48.2 °F - 48.2 °F 100% 29.36 in - South 2.3 mph - N/A   Overcast
4:55 AM 48.2 °F - 48.2 °F 100% 29.36 in - South 2.3 mph - N/A   Overcast
4:57 AM 48.2 °F - 48.2 °F 100% 29.36 in 3.1 mi South 3.5 mph - N/A   Overcast
5:00 AM 49 °F - 49 °F 99% 29.38 in 3 mi SSW 2.2 mph - -   Mist
5:01 AM 48.2 °F - 48.2 °F 100% 29.36 in - SSW 3.5 mph - N/A   Overcast
5:10 AM 50.0 °F - 48.2 °F 94% 29.36 in 3.1 mi South 2.3 mph - N/A   Overcast
5:14 AM 48.2 °F - 48.2 °F 100% 29.36 in - South 2.3 mph - N/A   Overcast
5:18 AM 50.0 °F - 48.2 °F 94% 29.36 in 3.1 mi South 1.2 mph - N/A   Overcast
5:25 AM 50.0 °F - 50.0 °F 100% 29.36 in 3.1 mi South 1.2 mph - N/A   Mostly Cloudy
5:36 AM 50.0 °F - 50.0 °F 100% 29.36 in 3.1 mi South 1.2 mph - N/A   Overcast
5:48 AM 48.2 °F - 48.2 °F 100% 29.39 in - NNE 2.3 mph - N/A   Overcast
5:55 AM 48.2 °F - 48.2 °F 100% 29.39 in 5.6 mi NNE 3.5 mph - N/A   Mostly Cloudy
5:59 AM 48.2 °F - 46.4 °F 93% 29.39 in 6.2 mi NNE 4.6 mph - N/A   Partly Cloudy
6:13 AM 50.0 °F - 48.2 °F 94% 29.39 in 6.2 mi North 3.5 mph - N/A   Scattered Clouds
6:15 AM 50.0 °F - 48.2 °F 94% 29.39 in 6.2 mi North 2.3 mph - N/A   Scattered Clouds
6:25 AM 50.0 °F - 48.2 °F 94% 29.39 in 6.2 mi North 2.3 mph - N/A   Scattered Clouds
6:51 AM 50.0 °F - 46.4 °F 87% 29.39 in 6.2 mi North 3.5 mph - N/A   Overcast
6:52 AM 50.0 °F - 46.4 °F 87% 29.39 in 6.2 mi North 3.5 mph - N/A   Overcast
6:55 AM 50.0 °F - 46.4 °F 87% 29.39 in 6.2 mi North 4.6 mph - N/A   Overcast
7:25 AM 46.4 °F 45.2 °F 46.4 °F 100% 29.39 in 6.2 mi North 3.5 mph - N/A   Mostly Cloudy
7:55 AM 46.4 °F - 46.4 °F 100% 29.42 in 6.2 mi North 2.3 mph - N/A   Overcast
8:00 AM 48 °F - 47 °F 96% 29.43 in 10 mi NNW 2.2 mph - -   Partly Cloudy
8:25 AM 51.8 °F - 50.0 °F 94% 29.42 in 6.2 mi NNW 3.5 mph - N/A   Mostly Cloudy
8:55 AM 55.4 °F - 50.0 °F 82% 29.42 in 6.2 mi NNW 3.5 mph - N/A   Mostly Cloudy
9:25 AM 57.2 °F - 50.0 °F 77% 29.44 in 6.2 mi NNW 4.6 mph - N/A   Overcast
9:55 AM 57.2 °F - 50.0 °F 77% 29.44 in 6.2 mi NW 5.8 mph - N/A   Overcast
10:19 AM 55.4 °F - 48.2 °F 77% 29.44 in 6.2 mi NNW 6.9 mph - N/A   Overcast
10:25 AM 55.4 °F - 48.2 °F 77% 29.44 in 6.2 mi NNW 5.8 mph - N/A   Mostly Cloudy
10:55 AM 55.4 °F - 48.2 °F 77% 29.47 in 6.2 mi North 8.1 mph - N/A   Mostly Cloudy
11:00 AM 57 °F - 49 °F 68% 29.49 in 19 mi North 6.7 mph - -   Mostly Cloudy
11:25 AM 57.2 °F - 48.2 °F 72% 29.47 in 6.2 mi NNW 5.8 mph - N/A   Overcast
11:55 AM 59.0 °F - 50.0 °F 72% 29.47 in 6.2 mi NW 8.1 mph - N/A   Mostly Cloudy
11:56 AM 59.0 °F - 50.0 °F 72% 29.47 in 6.2 mi NW 8.1 mph - N/A   Mostly Cloudy
12:00 PM 57.2 °F - 48.2 °F 72% 29.47 in 6.2 mi NW 9.2 mph - N/A   Overcast
12:12 PM 57.2 °F - 48.2 °F 72% 29.47 in 6.2 mi NW 6.9 mph - N/A   Mostly Cloudy
12:19 PM 57.2 °F - 50.0 °F 77% 29.47 in 6.2 mi NW 8.1 mph - N/A   Mostly Cloudy
12:25 PM 57.2 °F - 50.0 °F 77% 29.47 in 6.2 mi NW 9.2 mph - N/A   Mostly Cloudy
12:55 PM 59.0 °F - 50.0 °F 72% 29.50 in 6.2 mi NW 9.2 mph - N/A   Partly Cloudy
1:07 PM 59.0 °F - 48.2 °F 67% 29.50 in 6.2 mi WNW 10.4 mph - N/A   Mostly Cloudy
1:25 PM 59.0 °F - 48.2 °F 67% 29.50 in 6.2 mi WNW 12.7 mph - N/A   Partly Cloudy
1:48 PM 59.0 °F - 50.0 °F 72% 29.50 in 6.2 mi NW 12.7 mph - N/A   Mostly Cloudy
1:55 PM 59.0 °F - 50.0 °F 72% 29.50 in 6.2 mi NW 11.5 mph - N/A   Mostly Cloudy
2:00 PM 60 °F - 49 °F 58% 29.53 in 19 mi NW 11.2 mph - -   Partly Cloudy
2:03 PM 60.8 °F - 50.0 °F 68% 29.50 in 6.2 mi NW 11.5 mph - N/A   Mostly Cloudy
2:25 PM 60.8 °F - 48.2 °F 63% 29.53 in 6.2 mi WNW 12.7 mph - N/A   Mostly Cloudy
2:30 PM 59.0 °F - 50.0 °F 72% 29.53 in 6.2 mi West 13.8 mph - N/A   Scattered Clouds
2:40 PM 60.8 °F - 50.0 °F 68% 29.53 in 6.2 mi WNW 12.7 mph - N/A   Mostly Cloudy
2:55 PM 60.8 °F - 48.2 °F 63% 29.53 in 6.2 mi WNW 12.7 mph - N/A   Mostly Cloudy
3:01 PM 59.0 °F - 48.2 °F 67% 29.53 in 6.2 mi WNW 13.8 mph - N/A   Mostly Cloudy
3:25 PM 60.8 °F - 48.2 °F 63% 29.53 in 6.2 mi WNW 15.0 mph - N/A   Mostly Cloudy
3:55 PM 59.0 °F - 48.2 °F 67% 29.53 in 6.2 mi WNW 13.8 mph - N/A   Mostly Cloudy
4:25 PM 59.0 °F - 48.2 °F 67% 29.56 in 6.2 mi WNW 15.0 mph - N/A   Scattered Clouds
4:55 PM 59.0 °F - 48.2 °F 67% 29.56 in 6.2 mi WNW 13.8 mph - N/A   Scattered Clouds
5:00 PM 58 °F - 48 °F 60% 29.57 in 18 mi WNW 17.9 mph - -   Scattered Clouds
5:00 PM 59.0 °F - 48.2 °F 67% 29.56 in 6.2 mi WNW 16.1 mph - N/A   Mostly Cloudy
5:04 PM 59.0 °F - 48.2 °F 67% 29.56 in 6.2 mi WNW 17.3 mph - N/A   Scattered Clouds
5:25 PM 59.0 °F - 48.2 °F 67% 29.56 in 6.2 mi WNW 16.1 mph - N/A   Partly Cloudy
5:55 PM 57.2 °F - 46.4 °F 67% 29.56 in 6.2 mi West 13.8 mph - N/A   Scattered Clouds
6:25 PM 57.2 °F - 46.4 °F 67% 29.59 in 6.2 mi WNW 15.0 mph - N/A   Mostly Cloudy
6:55 PM 55.4 °F - 44.6 °F 67% 29.59 in 6.2 mi WNW 13.8 mph - N/A   Mostly Cloudy
7:25 PM 55.4 °F - 44.6 °F 67% 29.59 in 6.2 mi WNW 16.1 mph - N/A   Scattered Clouds
7:55 PM 55.4 °F - 42.8 °F 63% 29.62 in 6.2 mi WNW 13.8 mph - N/A   Partly Cloudy
8:00 PM 55 °F - 45 °F 60% 29.63 in 19 mi WNW 13.4 mph - -   Partly Cloudy
8:25 PM 55.4 °F - 44.6 °F 67% 29.62 in 6.2 mi WNW 12.7 mph - N/A   Mostly Cloudy
8:55 PM 55.4 °F - 44.6 °F 67% 29.62 in 6.2 mi WNW 16.1 mph - N/A   Partly Cloudy
9:25 PM 55.4 °F - 44.6 °F 67% 29.65 in 6.2 mi NW 15.0 mph - N/A   Scattered Clouds
9:55 PM 55.4 °F - 44.6 °F 67% 29.65 in 6.2 mi WNW 12.7 mph - N/A   Mostly Cloudy
10:25 PM 55.4 °F - 44.6 °F 67% 29.65 in 6.2 mi WNW 12.7 mph - N/A   Mostly Cloudy
10:55 PM 55.4 °F - 44.6 °F 67% 29.68 in 6.2 mi WNW 13.8 mph - N/A   Mostly Cloudy
11:00 PM 55 °F - 44 °F 57% 29.68 in 28 mi WNW 13.4 mph - -   Partly Cloudy
11:25 PM 55.4 °F - 44.6 °F 67% 29.68 in 6.2 mi WNW 13.8 mph - N/A   Partly Cloudy
11:55 PM 55.4 °F - 44.6 °F 67% 29.68 in 6.2 mi WNW 12.7 mph 24.2 mph N/A   Scattered Clouds